ARIANE 42P DEB, 44514

Orbit data source: Space-Track

ARIANE 42P DEB, 44514 is space debris in LEO originally from a launch on Mon, 10 Aug 1992 UTC launched from the French Guiana (FRGUI). Debris objects in space refer to the collection of defunct objects orbiting the Earth. Examples of debris include non-operational satellites, rocket bodies, and fragments generated from explosions, collisions, or faulty payload assembly.

Loading next visibility...
Identifier
44514, 1992-052M
Orbit
LEO
Country
Flag of FRFR
Related business
Manufacturer
ArianeGroup
Mission
Spacecraft
Bus & Motor
Unknown
Mass
Unknown
Launch date (UTC)
1992-08-10 (34 years ago)
Launch vehicle
Unknown
Launch site
French Guiana (FRGUI)
Object type
Payload
Rocket body
Debris
Shape & HBR
Unknown shape, 0.1 m
Radar Cross Section
Small (<0.1 m²)

Expand to show TLE details & history
Last TLE update: 1 day ago

TLE from 1 day ago
0 ARIANE 42P DEB
1 44514U 92052M   26093.51100921  .00003000  00000-0  90121-2 0  9993
2 44514  65.7850 281.6633 0262129  39.6683 322.3193 12.97423492312076
Epoch: 2026-04-03T12:15Z
TLE epoch observation values (Epoch: 2026-04-03T12:15:51.195Z)
Latitude
-0.00002°
Longitude
-94.14411°
Altitude
1,117.408 km
Speed
7.369 km/s
True Right ascension
18h 46m 39s
True Declination
0° 00' 00"
Sunlit
Object was in daylight at epoch
Visualization orbit readout
Latitude
Unknown
Longitude
Unknown
Altitude
Unknown
Speed
Unknown
Apparent Right ascension
Unknown
Apparent Declination
Unknown
Sunlit
N/A
Visualization observer readout
Local Sidereal Time
19:10:53
Azimuth
Unknown
Elevation
Unknown
Doppler factor
Unknown
Orbital elements
Apogee altitude
1,471.28 km
Perigee altitude
1,070.279 km
Semi-major axis
7,648.917 km
Eccentricity
0.02621
Inclination
65.785°
RAAN
281.6633°
Arg. of periapsis
39.6683°
True anomaly
320.43472°
Mean anomaly
322.3193°
Eccentric anomaly
321.38193°
Mean motion
3.24447 °/min
Orbital period
110.96 mins
BSTAR
0.0090121
Loading maneuver chart data...
Computing Atmospheric mass density...
Loading historical data...
Loading historical data...
Loading historical data...
Loading historical data...
Loading historical data...
Loading historical data...
Loading historical data...

Documentation

Showing up to 5 results
|